DLH2016 OMDB-EDDF

Flight info

Callsign DLH2016
Flight time N/A
Altitude 38000
Route SENPA N571 ALPOB L768 ULADA Q143 MEDGO N697 HIL A788 HLF L604 WEJ L677 CVO L617 NOZ L551 ANTAR DCT AKINA/N0485F400 DCT RIGRO DCT PEREN UL863 EVIVI DCT OKANA DCT TONDO DCT ARSIN DCT BUDEX DCT IPDUL DCT RAPET T170 VAGAB/N0393F240 T170 GAPLA T178 KERAX KERAX5D
Aircraft A388/J-SADE2E3FGHIJ3J4J5M1RWXY/LB1D1

Departure

Time 2026-04-26 14:06
Airport Dubai International Airport (OMDB)

Arrival

Time N/A
Airport Frankfurt Main Airport (EDDF)
Time Latitude Longitude Altitude Speed Heading
2026-04-26 13:42 25.25784 55.37579 33 ft 0 kts 122°
2026-04-26 13:54 25.25786 55.37576 33 ft 1 kts 122°
2026-04-26 13:55 25.25793 55.37563 32 ft 1 kts 122°
2026-04-26 13:55 25.25796 55.37559 32 ft 1 kts 122°
2026-04-26 13:55 25.25824 55.37534 30 ft 6 kts 175°
2026-04-26 13:56 25.25840 55.37542 30 ft 0 kts 216°
2026-04-26 13:57 25.25829 55.37533 31 ft 4 kts 216°
2026-04-26 13:58 25.25799 55.37510 31 ft 8 kts 216°
2026-04-26 13:59 25.25774 55.37490 33 ft 9 kts 216°
2026-04-26 13:59 25.25720 55.37447 33 ft 11 kts 216°
2026-04-26 13:59 25.25691 55.37424 33 ft 2 kts 215°
2026-04-26 14:00 25.25566 55.37326 33 ft 6 kts 214°
2026-04-26 14:00 25.25527 55.37313 33 ft 7 kts 178°
2026-04-26 14:00 25.25491 55.37314 34 ft 8 kts 178°
2026-04-26 14:01 25.25425 55.37328 38 ft 7 kts 160°
2026-04-26 14:01 25.25402 55.37335 40 ft 0 kts 167°
2026-04-26 14:02 25.25375 55.37348 41 ft 8 kts 139°
2026-04-26 14:02 25.25317 55.37450 43 ft 24 kts 121°
2026-04-26 14:02 25.25217 55.37637 44 ft 31 kts 120°
2026-04-26 14:03 25.25117 55.37830 42 ft 30 kts 120°
2026-04-26 14:03 25.25024 55.38010 42 ft 24 kts 119°
2026-04-26 14:03 25.24984 55.38086 41 ft 2 kts 129°
2026-04-26 14:03 25.24962 55.38106 42 ft 6 kts 157°
2026-04-26 14:04 25.24912 55.38111 43 ft 8 kts 203°
2026-04-26 14:04 25.24850 55.38076 46 ft 12 kts 214°
2026-04-26 14:04 25.24818 55.38000 45 ft 8 kts 308°
2026-04-26 14:04 25.24843 55.37970 45 ft 0 kts 301°
2026-04-26 14:05 25.24876 55.37909 45 ft 37 kts 301°
2026-04-26 14:05 25.25135 55.37429 44 ft 106 kts 301°
2026-04-26 14:05 25.25620 55.36552 34 ft 153 kts 302°
2026-04-26 14:05 25.26227 55.35498 154 ft 171 kts 302°
2026-04-26 14:06 25.26849 55.34371 493 ft 176 kts 301°
2026-04-26 14:06 25.27510 55.33172 621 ft 190 kts 301°
2026-04-26 14:06 25.28218 55.31889 710 ft 201 kts 301°
2026-04-26 14:06 25.28970 55.30529 798 ft 213 kts 300°
2026-04-26 14:07 25.29560 55.28980 1060 ft 226 kts 283°
2026-04-26 14:07 25.29735 55.27238 1633 ft 233 kts 274°
2026-04-26 14:07 25.29797 55.26021 1771 ft 246 kts 275°
2026-04-26 14:07 25.29899 55.24092 2076 ft 255 kts 275°
2026-04-26 14:08 25.30000 55.22133 2702 ft 256 kts 275°
2026-04-26 14:08 25.30140 55.19442 3108 ft 277 kts 275°
2026-04-26 14:08 25.30254 55.17234 3275 ft 297 kts 275°
2026-04-26 14:08 25.30370 55.14926 3766 ft 299 kts 275°
2026-04-26 14:09 25.30443 55.13408 4498 ft 287 kts 275°
2026-04-26 14:09 25.30551 55.11222 5042 ft 295 kts 275°
2026-04-26 14:09 25.30668 55.08896 5328 ft 309 kts 275°
2026-04-26 14:09 25.30822 55.05810 6051 ft 312 kts 275°
2026-04-26 14:10 25.30900 55.04233 6421 ft 313 kts 275°
2026-04-26 14:10 25.31059 55.01036 7148 ft 316 kts 275°
2026-04-26 14:10 25.31179 54.98595 7674 ft 319 kts 275°
2026-04-26 14:10 25.31260 54.96939 8040 ft 321 kts 275°
2026-04-26 14:11 25.31503 54.91974 9176 ft 326 kts 274°
2026-04-26 14:11 25.31625 54.89488 9728 ft 330 kts 274°
2026-04-26 14:11 25.31747 54.86953 10283 ft 332 kts 274°
2026-04-26 14:12 25.31870 54.84405 10847 ft 334 kts 274°
2026-04-26 14:12 25.31995 54.81820 11376 ft 337 kts 274°
2026-04-26 14:12 25.32119 54.79223 11955 ft 339 kts 274°
2026-04-26 14:12 25.32244 54.76608 12516 ft 343 kts 273°
2026-04-26 14:13 25.32496 54.71309 13667 ft 348 kts 273°
2026-04-26 14:13 25.32623 54.68629 14181 ft 350 kts 273°
2026-04-26 14:13 25.32748 54.65974 14671 ft 353 kts 273°
2026-04-26 14:14 25.32875 54.63250 14830 ft 355 kts 272°
2026-04-26 14:14 25.33003 54.60524 14853 ft 355 kts 272°
2026-04-26 14:14 25.33129 54.57809 14855 ft 354 kts 272°
2026-04-26 14:14 25.33269 54.55085 15001 ft 356 kts 275°
2026-04-26 14:15 25.33677 54.52384 15507 ft 357 kts 283°
2026-04-26 14:15 25.34375 54.49748 16052 ft 359 kts 286°
2026-04-26 14:15 25.35105 54.47099 16548 ft 361 kts 285°
2026-04-26 14:15 25.35815 54.44465 17047 ft 364 kts 285°
2026-04-26 14:16 25.36536 54.41772 17536 ft 366 kts 285°
2026-04-26 14:16 25.37264 54.39058 18030 ft 369 kts 284°
2026-04-26 14:16 25.37997 54.36335 18477 ft 371 kts 284°
2026-04-26 14:16 25.38732 54.33601 18944 ft 371 kts 284°
2026-04-26 14:17 25.39471 54.30856 19406 ft 372 kts 284°
2026-04-26 14:17 25.40210 54.28111 19848 ft 373 kts 284°
2026-04-26 14:17 25.40932 54.25348 20292 ft 374 kts 283°
2026-04-26 14:17 25.41612 54.22604 20719 ft 375 kts 283°
2026-04-26 14:18 25.42295 54.19812 21160 ft 376 kts 283°
2026-04-26 14:18 25.42982 54.17013 21595 ft 378 kts 283°
2026-04-26 14:18 25.43675 54.14207 22025 ft 379 kts 283°
2026-04-26 14:18 25.44372 54.11391 22457 ft 380 kts 283°
2026-04-26 14:19 25.45071 54.08562 22889 ft 381 kts 282°
2026-04-26 14:19 25.45615 54.06314 23218 ft 382 kts 282°
2026-04-26 14:19 25.46296 54.03475 23605 ft 384 kts 282°
2026-04-26 14:19 25.46983 54.00609 23952 ft 385 kts 282°
2026-04-26 14:20 25.47672 53.97735 24278 ft 387 kts 282°
2026-04-26 14:20 25.48353 53.94896 24608 ft 388 kts 282°
2026-04-26 14:20 25.49050 53.91994 24932 ft 390 kts 282°
2026-04-26 14:20 25.49747 53.89085 25259 ft 392 kts 282°
2026-04-26 14:21 25.50447 53.86168 25604 ft 394 kts 282°
2026-04-26 14:21 25.51150 53.83230 25955 ft 395 kts 282°
2026-04-26 14:21 25.51855 53.80284 26312 ft 397 kts 282°
2026-04-26 14:21 25.52563 53.77324 26687 ft 399 kts 282°
2026-04-26 14:22 25.53273 53.74349 27063 ft 401 kts 282°
2026-04-26 14:22 25.53978 53.71402 27455 ft 403 kts 283°
2026-04-26 14:22 25.54697 53.68399 27822 ft 405 kts 283°
2026-04-26 14:22 25.55421 53.65376 28215 ft 407 kts 283°
2026-04-26 14:23 25.56150 53.62327 28625 ft 410 kts 283°
2026-04-26 14:23 25.56881 53.59266 29024 ft 412 kts 283°
2026-04-26 14:23 25.57614 53.56189 29431 ft 415 kts 283°
2026-04-26 14:23 25.58357 53.53092 29795 ft 418 kts 283°
2026-04-26 14:24 25.59099 53.49975 30192 ft 419 kts 283°
2026-04-26 14:24 25.59840 53.46850 30610 ft 420 kts 283°
2026-04-26 14:24 25.60572 53.43762 31141 ft 417 kts 283°
2026-04-26 14:24 25.61300 53.40688 31868 ft 409 kts 283°
2026-04-26 14:25 25.62012 53.37683 32778 ft 397 kts 284°
2026-04-26 14:25 25.62703 53.34776 33857 ft 381 kts 284°
2026-04-26 14:25 25.63367 53.31975 34476 ft 376 kts 284°
2026-04-26 14:26 25.64707 53.26263 34627 ft 391 kts 284°
2026-04-26 14:26 25.66095 53.20348 34753 ft 406 kts 284°
2026-04-26 14:27 25.67541 53.14186 34864 ft 421 kts 284°
2026-04-26 14:27 25.69038 53.07794 35061 ft 434 kts 284°
2026-04-26 14:27 25.69808 53.04561 35418 ft 434 kts 286°
2026-04-26 14:28 25.70783 53.01397 35849 ft 433 kts 291°
2026-04-26 14:28 25.72005 52.98353 36281 ft 432 kts 295°
2026-04-26 14:28 25.73394 52.95441 36689 ft 432 kts 296°
2026-04-26 14:28 25.74792 52.92500 37092 ft 430 kts 296°
2026-04-26 14:29 25.76174 52.89568 37507 ft 429 kts 296°
2026-04-26 14:29 25.77555 52.86634 37827 ft 430 kts 296°
2026-04-26 14:29 25.78944 52.83681 37882 ft 433 kts 296°
2026-04-26 14:30 25.81720 52.77790 37886 ft 430 kts 296°
2026-04-26 14:30 25.84491 52.71906 37880 ft 431 kts 296°
2026-04-26 14:31 25.87244 52.66052 37889 ft 430 kts 296°
2026-04-26 14:31 25.90009 52.60163 37881 ft 430 kts 295°
2026-04-26 14:32 25.92656 52.54233 37880 ft 429 kts 294°
2026-04-26 14:32 25.95258 52.48268 37878 ft 428 kts 294°
2026-04-26 14:33 25.97853 52.42360 37884 ft 428 kts 294°
2026-04-26 14:33 26.00477 52.36425 37878 ft 428 kts 294°
2026-04-26 14:34 26.03127 52.30508 37884 ft 428 kts 294°
2026-04-26 14:34 26.05777 52.24576 37879 ft 428 kts 294°
2026-04-26 14:35 26.08416 52.18652 37891 ft 428 kts 294°
2026-04-26 14:35 26.11037 52.12757 37896 ft 428 kts 294°
2026-04-26 14:36 26.13673 52.06821 37894 ft 428 kts 294°
2026-04-26 14:36 26.16302 52.00895 37896 ft 428 kts 294°
2026-04-26 14:37 26.18941 51.94993 37891 ft 428 kts 294°
2026-04-26 14:37 26.21595 51.89069 37901 ft 427 kts 294°
2026-04-26 14:38 26.24210 51.83116 37904 ft 427 kts 294°
2026-04-26 14:38 26.26832 51.77175 37906 ft 427 kts 294°
2026-04-26 14:39 26.29481 51.71247 37887 ft 427 kts 294°
2026-04-26 14:39 26.32103 51.65365 37889 ft 427 kts 294°
2026-04-26 14:40 26.34745 51.59439 37899 ft 427 kts 294°
2026-04-26 14:40 26.37367 51.53505 37903 ft 426 kts 292°
2026-04-26 14:41 26.39469 51.47351 37902 ft 424 kts 288°
2026-04-26 14:41 26.41451 51.41147 37903 ft 424 kts 288°
2026-04-26 14:42 26.43423 51.34992 37900 ft 424 kts 288°
2026-04-26 14:42 26.45405 51.28797 37905 ft 424 kts 288°
2026-04-26 14:43 26.47384 51.22601 37903 ft 424 kts 288°
2026-04-26 14:43 26.49359 51.16406 37906 ft 423 kts 288°
2026-04-26 14:44 26.51318 51.10251 37907 ft 423 kts 288°
2026-04-26 14:44 26.53283 51.04066 37911 ft 423 kts 288°
2026-04-26 14:45 26.55246 50.97876 37905 ft 423 kts 288°
2026-04-26 14:45 26.57206 50.91683 37910 ft 422 kts 288°
2026-04-26 14:46 26.59136 50.85500 37904 ft 422 kts 287°
2026-04-26 14:46 26.61039 50.79343 37907 ft 422 kts 287°
2026-04-26 14:47 26.62955 50.73142 37907 ft 422 kts 287°
2026-04-26 14:47 26.64862 50.66950 37902 ft 421 kts 287°
2026-04-26 14:48 26.66702 50.60734 37904 ft 421 kts 286°
2026-04-26 14:48 26.68532 50.54521 37910 ft 421 kts 286°
2026-04-26 14:49 26.70357 50.48342 37909 ft 421 kts 286°
2026-04-26 14:49 26.72021 50.42079 37919 ft 420 kts 284°
2026-04-26 14:50 26.73593 50.35778 37921 ft 420 kts 284°
2026-04-26 14:50 26.75042 50.29458 37911 ft 419 kts 279°
2026-04-26 14:51 26.75749 50.22997 37915 ft 419 kts 273°
2026-04-26 14:51 26.75839 50.16528 37918 ft 419 kts 271°
2026-04-26 14:52 26.75914 50.10013 37921 ft 418 kts 271°
2026-04-26 14:52 26.75982 50.03509 37919 ft 418 kts 271°
2026-04-26 14:53 26.76042 49.97000 37922 ft 418 kts 271°
2026-04-26 14:53 26.76096 49.90537 37917 ft 418 kts 271°
2026-04-26 14:54 26.76144 49.84031 37915 ft 418 kts 271°
2026-04-26 14:54 26.76191 49.77519 37918 ft 418 kts 271°
2026-04-26 14:55 26.76234 49.71022 37919 ft 418 kts 271°
2026-04-26 14:55 26.76275 49.64545 37919 ft 418 kts 271°
2026-04-26 14:56 26.76312 49.58052 37920 ft 418 kts 271°
2026-04-26 14:56 26.76350 49.51546 37925 ft 417 kts 271°
2026-04-26 14:57 26.76385 49.45056 37924 ft 417 kts 271°
2026-04-26 14:57 26.76417 49.38585 37925 ft 417 kts 271°
2026-04-26 14:58 26.76444 49.32113 37925 ft 416 kts 271°
2026-04-26 14:58 26.76468 49.25637 37925 ft 416 kts 271°
2026-04-26 14:59 26.76490 49.19202 37925 ft 416 kts 270°
2026-04-26 14:59 26.76508 49.12734 37928 ft 415 kts 270°
2026-04-26 15:00 26.76524 49.06273 37931 ft 415 kts 270°
2026-04-26 15:00 26.76536 48.99857 37925 ft 415 kts 270°
2026-04-26 15:01 26.76546 48.93403 37920 ft 415 kts 270°
2026-04-26 15:01 26.76553 48.86950 37921 ft 415 kts 270°
2026-04-26 15:02 26.76557 48.80482 37929 ft 415 kts 270°
2026-04-26 15:02 26.76557 48.74065 37933 ft 416 kts 270°
2026-04-26 15:03 26.76533 48.67594 37939 ft 416 kts 269°
2026-04-26 15:03 26.76345 48.61136 37939 ft 416 kts 269°
2026-04-26 15:04 26.76152 48.54662 37942 ft 416 kts 269°
2026-04-26 15:04 26.75974 48.48202 37949 ft 415 kts 269°
2026-04-26 15:05 26.75800 48.41797 37951 ft 415 kts 269°
2026-04-26 15:05 26.75621 48.35354 37954 ft 414 kts 269°
2026-04-26 15:06 26.75443 48.28928 37946 ft 413 kts 269°
2026-04-26 15:06 26.75263 48.22512 37943 ft 412 kts 269°
2026-04-26 15:07 26.74989 48.12949 37947 ft 412 kts 269°
2026-04-26 15:07 26.74802 48.06535 37955 ft 417 kts 269°
2026-04-26 15:08 26.74607 47.99950 37955 ft 425 kts 269°
2026-04-26 15:08 26.74407 47.93367 37957 ft 424 kts 269°
2026-04-26 15:09 26.74311 47.86820 37959 ft 424 kts 272°
2026-04-26 15:09 26.74663 47.80231 37962 ft 424 kts 273°
2026-04-26 15:10 26.74939 47.74758 37965 ft 423 kts 273°
2026-04-26 15:10 26.75320 47.67084 37955 ft 422 kts 273°
2026-04-26 15:11 26.75642 47.60571 37953 ft 422 kts 273°
2026-04-26 15:11 26.75962 47.54020 37965 ft 422 kts 273°
2026-04-26 15:12 26.76280 47.47471 37962 ft 422 kts 273°
2026-04-26 15:12 26.76595 47.40918 37967 ft 422 kts 273°
2026-04-26 15:13 26.77242 47.34391 37969 ft 423 kts 279°
2026-04-26 15:13 26.78257 47.27958 37981 ft 423 kts 278°
2026-04-26 15:14 26.79252 47.21471 37987 ft 423 kts 278°
2026-04-26 15:14 26.80245 47.14990 37981 ft 422 kts 278°
2026-04-26 15:15 26.81236 47.08512 37985 ft 422 kts 278°
2026-04-26 15:15 26.82219 47.02077 37981 ft 422 kts 278°
2026-04-26 15:16 26.83204 46.95605 37984 ft 421 kts 278°
2026-04-26 15:16 26.84183 46.89143 37984 ft 421 kts 278°
2026-04-26 15:17 26.84995 46.83778 37985 ft 421 kts 278°
2026-04-26 15:17 26.86125 46.76278 37982 ft 420 kts 278°
2026-04-26 15:18 26.87095 46.69825 37982 ft 420 kts 278°
2026-04-26 15:18 26.88061 46.63375 37985 ft 420 kts 278°
2026-04-26 15:19 26.89024 46.56919 37990 ft 420 kts 278°
2026-04-26 15:19 26.89977 46.50517 37987 ft 420 kts 278°
2026-04-26 15:20 26.90934 46.44066 37992 ft 420 kts 278°
2026-04-26 15:20 26.91888 46.37612 37992 ft 420 kts 278°
2026-04-26 15:21 26.92845 46.31155 37997 ft 420 kts 278°
2026-04-26 15:21 26.93794 46.24739 37993 ft 420 kts 278°
2026-04-26 15:22 26.94745 46.18283 37995 ft 420 kts 277°
2026-04-26 15:22 26.95694 46.11819 37995 ft 420 kts 277°
2026-04-26 15:23 26.96641 46.05353 37992 ft 420 kts 277°
2026-04-26 15:23 26.97584 45.98884 37992 ft 420 kts 277°
2026-04-26 15:24 26.98518 45.92461 37992 ft 420 kts 277°
2026-04-26 15:24 26.99456 45.85987 37990 ft 420 kts 277°
2026-04-26 15:25 27.00233 45.80606 37990 ft 420 kts 277°
2026-04-26 15:25 27.01316 45.73086 37989 ft 420 kts 277°
2026-04-26 15:26 27.02244 45.66618 37990 ft 420 kts 277°
2026-04-26 15:26 27.03169 45.60146 37994 ft 420 kts 277°
2026-04-26 15:27 27.04094 45.53668 37990 ft 420 kts 277°
2026-04-26 15:27 27.05021 45.47192 37992 ft 420 kts 277°
2026-04-26 15:28 27.05887 45.40752 37991 ft 420 kts 276°
2026-04-26 15:28 27.06581 45.34248 37986 ft 420 kts 275°
2026-04-26 15:29 27.07283 45.27751 37980 ft 420 kts 275°
2026-04-26 15:30 27.08717 45.14785 37980 ft 420 kts 275°
2026-04-26 15:30 27.09434 45.08276 37975 ft 420 kts 275°
2026-04-26 15:31 27.10505 44.98501 37973 ft 421 kts 275°
2026-04-26 15:32 27.11449 44.89829 37967 ft 421 kts 275°
2026-04-26 15:32 27.12268 44.82257 37966 ft 420 kts 275°
2026-04-26 15:33 27.12971 44.75745 37964 ft 420 kts 275°
2026-04-26 15:33 27.13670 44.69225 37967 ft 420 kts 275°
2026-04-26 15:34 27.14364 44.62753 37962 ft 420 kts 275°
2026-04-26 15:34 27.15059 44.56242 37965 ft 420 kts 275°
2026-04-26 15:35 27.15751 44.49732 37964 ft 420 kts 275°
2026-04-26 15:35 27.16439 44.43222 37964 ft 420 kts 275°
2026-04-26 15:36 27.17124 44.36715 37961 ft 419 kts 275°
2026-04-26 15:36 27.17794 44.30267 37962 ft 418 kts 275°
2026-04-26 15:37 27.18464 44.23780 37963 ft 418 kts 275°
2026-04-26 15:37 27.19132 44.17292 37942 ft 418 kts 275°
2026-04-26 15:38 27.19795 44.10814 37948 ft 418 kts 275°
2026-04-26 15:38 27.20452 44.04378 37954 ft 418 kts 274°
2026-04-26 15:39 27.21111 43.97887 37964 ft 418 kts 274°
2026-04-26 15:39 27.21657 43.92489 37962 ft 418 kts 274°
2026-04-26 15:40 27.22420 43.84905 37963 ft 418 kts 274°
2026-04-26 15:40 27.23071 43.78409 37959 ft 418 kts 274°
2026-04-26 15:41 27.23713 43.71962 37963 ft 418 kts 274°
2026-04-26 15:41 27.24359 43.65456 37953 ft 419 kts 274°
2026-04-26 15:42 27.25002 43.58956 37952 ft 419 kts 274°
2026-04-26 15:42 27.25639 43.52505 37950 ft 419 kts 274°
2026-04-26 15:43 27.26278 43.45990 37959 ft 419 kts 274°
2026-04-26 15:44 27.27229 43.36234 37964 ft 419 kts 274°
2026-04-26 15:44 27.28173 43.26474 37946 ft 419 kts 274°
2026-04-26 15:45 27.29107 43.16745 37949 ft 419 kts 274°
2026-04-26 15:46 27.30039 43.06967 37958 ft 419 kts 274°
2026-04-26 15:46 27.30553 43.01553 37964 ft 420 kts 274°
2026-04-26 15:47 27.31575 42.90699 37961 ft 420 kts 274°
2026-04-26 15:48 27.32186 42.84173 37964 ft 420 kts 274°
2026-04-26 15:48 27.32793 42.77648 37959 ft 420 kts 273°
2026-04-26 15:49 27.33398 42.71116 37957 ft 420 kts 273°
2026-04-26 15:49 27.33996 42.64630 37971 ft 420 kts 273°
2026-04-26 15:50 27.34595 42.58100 37968 ft 420 kts 273°
2026-04-26 15:50 27.35190 42.51571 37974 ft 419 kts 273°
2026-04-26 15:51 27.35782 42.45051 37975 ft 419 kts 273°
2026-04-26 15:51 27.36367 42.38572 37983 ft 419 kts 273°
2026-04-26 15:52 27.36951 42.32054 37981 ft 419 kts 273°
2026-04-26 15:52 27.37532 42.25539 37990 ft 419 kts 273°
2026-04-26 15:53 27.38110 42.19021 37994 ft 418 kts 273°
2026-04-26 15:53 27.38682 42.12549 37996 ft 418 kts 273°
2026-04-26 15:54 27.39254 42.06031 38002 ft 418 kts 273°
2026-04-26 15:54 27.39824 41.99512 38010 ft 419 kts 273°
2026-04-26 15:55 27.40389 41.92999 38013 ft 419 kts 272°
2026-04-26 15:55 27.40953 41.86473 38019 ft 419 kts 272°
2026-04-26 15:56 27.41510 41.79996 38023 ft 419 kts 272°
2026-04-26 15:56 27.41929 41.73469 38021 ft 417 kts 267°
2026-04-26 15:57 27.41291 41.67006 38023 ft 416 kts 258°
2026-04-26 15:57 27.39516 41.60803 38019 ft 418 kts 249°
2026-04-26 15:58 27.37129 41.54878 38021 ft 418 kts 249°
2026-04-26 15:58 27.34753 41.48903 38024 ft 419 kts 248°
2026-04-26 15:59 27.32365 41.42930 38031 ft 419 kts 248°
2026-04-26 15:59 27.29969 41.36958 38037 ft 419 kts 248°
2026-04-26 16:00 27.27569 41.30988 38032 ft 419 kts 248°
2026-04-26 16:00 27.25186 41.25070 38035 ft 419 kts 248°
2026-04-26 16:01 27.22780 41.19099 38039 ft 419 kts 248°
2026-04-26 16:01 27.20369 41.13127 38033 ft 420 kts 248°
2026-04-26 16:02 27.17958 41.07163 38031 ft 420 kts 248°
2026-04-26 16:02 27.15557 41.01233 38028 ft 420 kts 248°
2026-04-26 16:03 27.13144 40.95279 38027 ft 419 kts 248°
2026-04-26 16:03 27.10728 40.89334 38028 ft 419 kts 248°
2026-04-26 16:04 27.08311 40.83388 38028 ft 419 kts 248°
2026-04-26 16:04 27.05886 40.77434 38016 ft 419 kts 248°
2026-04-26 16:05 27.03477 40.71527 38012 ft 420 kts 248°
2026-04-26 16:05 27.01046 40.65575 38018 ft 420 kts 248°
2026-04-26 16:06 26.98608 40.59615 38015 ft 420 kts 248°
2026-04-26 16:06 26.96170 40.53664 38010 ft 420 kts 248°
2026-04-26 16:07 26.93743 40.47746 38014 ft 421 kts 248°
2026-04-26 16:07 26.91299 40.41798 38012 ft 421 kts 248°
2026-04-26 16:08 26.88850 40.35846 38007 ft 420 kts 248°
2026-04-26 16:08 26.86401 40.29901 38010 ft 420 kts 248°
2026-04-26 16:09 26.83949 40.23960 38011 ft 420 kts 248°
2026-04-26 16:09 26.81517 40.18074 38010 ft 419 kts 248°
2026-04-26 16:10 26.79072 40.12166 38009 ft 419 kts 248°
2026-04-26 16:10 26.76618 40.06244 38005 ft 418 kts 248°
2026-04-26 16:11 26.74169 40.00341 38000 ft 418 kts 248°
2026-04-26 16:11 26.71735 39.94486 38008 ft 418 kts 248°
2026-04-26 16:12 26.69281 39.88590 38002 ft 418 kts 248°
2026-04-26 16:12 26.65592 39.79738 38005 ft 424 kts 248°
2026-04-26 16:13 26.63092 39.73752 38005 ft 425 kts 248°
2026-04-26 16:13 26.60608 39.67816 38001 ft 425 kts 248°
2026-04-26 16:14 26.58101 39.61830 38010 ft 425 kts 248°
2026-04-26 16:15 26.54312 39.52797 38001 ft 431 kts 248°
2026-04-26 16:15 26.51762 39.46734 37995 ft 431 kts 248°
2026-04-26 16:16 26.47952 39.37688 38008 ft 431 kts 248°
2026-04-26 16:16 26.45456 39.31609 37992 ft 430 kts 251°
2026-04-26 16:17 26.43660 39.25271 37995 ft 428 kts 258°
2026-04-26 16:17 26.42714 39.18741 37996 ft 427 kts 264°
2026-04-26 16:18 26.41924 39.08878 37997 ft 427 kts 264°
2026-04-26 16:19 26.41098 38.98998 37987 ft 426 kts 264°
2026-04-26 16:20 26.40272 38.89168 37997 ft 426 kts 264°
2026-04-26 16:20 26.39437 38.79307 37985 ft 426 kts 264°
2026-04-26 16:21 26.38877 38.72740 37980 ft 426 kts 264°
2026-04-26 16:21 26.38315 38.66173 37977 ft 425 kts 264°
2026-04-26 16:22 26.37748 38.59601 37978 ft 425 kts 264°
2026-04-26 16:22 26.37184 38.53090 37971 ft 425 kts 264°
2026-04-26 16:23 26.36614 38.46543 37957 ft 424 kts 264°
2026-04-26 16:23 26.36040 38.39992 37943 ft 424 kts 264°
2026-04-26 16:24 26.35465 38.33451 37933 ft 424 kts 264°
2026-04-26 16:24 26.34890 38.26953 37923 ft 424 kts 264°
2026-04-26 16:25 26.34308 38.20418 37920 ft 423 kts 264°
2026-04-26 16:25 26.33725 38.13897 37918 ft 423 kts 264°
2026-04-26 16:26 26.33236 38.08485 37917 ft 422 kts 264°
2026-04-26 16:26 26.32546 38.00871 37921 ft 422 kts 264°
2026-04-26 16:27 26.31957 37.94409 37925 ft 422 kts 264°
2026-04-26 16:27 26.31363 37.87910 37931 ft 420 kts 264°
2026-04-26 16:28 26.30767 37.81425 37942 ft 421 kts 264°
2026-04-26 16:28 26.30167 37.74938 37953 ft 421 kts 264°
2026-04-26 16:29 26.29565 37.68454 37957 ft 422 kts 264°
2026-04-26 16:29 26.28962 37.61985 37962 ft 421 kts 264°
2026-04-26 16:30 26.28356 37.55500 37962 ft 422 kts 264°
2026-04-26 16:30 26.27744 37.49015 37963 ft 420 kts 263°
2026-04-26 16:31 26.27136 37.42581 37958 ft 421 kts 264°
2026-04-26 16:31 26.26521 37.36103 37958 ft 421 kts 264°
2026-04-26 16:32 26.26006 37.30717 37949 ft 421 kts 264°
2026-04-26 16:32 26.25280 37.23136 37944 ft 421 kts 263°
2026-04-26 16:33 26.24661 37.16707 37928 ft 421 kts 263°
2026-04-26 16:33 26.24032 37.10219 37922 ft 422 kts 263°
2026-04-26 16:34 26.23400 37.03734 37917 ft 421 kts 263°
2026-04-26 16:34 26.22765 36.97250 37911 ft 421 kts 263°
2026-04-26 16:35 26.22127 36.90769 37899 ft 421 kts 263°
2026-04-26 16:35 26.21492 36.84338 37891 ft 421 kts 263°
2026-04-26 16:36 26.20850 36.77857 37879 ft 420 kts 263°
2026-04-26 16:36 26.20206 36.71389 37870 ft 420 kts 263°
2026-04-26 16:37 26.19559 36.64928 37864 ft 420 kts 263°
2026-04-26 16:37 26.19023 36.59560 37861 ft 420 kts 264°
2026-04-26 16:38 26.19454 36.52040 37858 ft 424 kts 279°
2026-04-26 16:38 26.21578 36.45845 37862 ft 435 kts 292°
2026-04-26 16:39 26.25256 36.40355 37861 ft 452 kts 306°
2026-04-26 16:39 26.29644 36.35352 37847 ft 451 kts 305°
2026-04-26 16:40 26.33976 36.30351 37852 ft 451 kts 305°
2026-04-26 16:40 26.38329 36.25320 37864 ft 451 kts 305°
2026-04-26 16:41 26.42682 36.20287 37866 ft 450 kts 305°
2026-04-26 16:41 26.47029 36.15255 37865 ft 450 kts 305°
2026-04-26 16:42 26.50646 36.11064 37867 ft 450 kts 305°
2026-04-26 16:42 26.55695 36.05207 37866 ft 450 kts 304°
2026-04-26 16:43 26.59298 36.01024 37864 ft 450 kts 304°
2026-04-26 16:43 26.63639 35.95977 37864 ft 450 kts 304°
2026-04-26 16:44 26.68675 35.90114 37866 ft 450 kts 304°
2026-04-26 16:44 26.73005 35.85068 37872 ft 450 kts 304°
2026-04-26 16:45 26.76631 35.80837 37868 ft 449 kts 304°
2026-04-26 16:45 26.80924 35.75823 37872 ft 449 kts 304°
2026-04-26 16:46 26.85249 35.70765 37871 ft 449 kts 304°
2026-04-26 16:46 26.89566 35.65712 37871 ft 449 kts 304°
2026-04-26 16:47 26.93842 35.60702 37874 ft 449 kts 304°
2026-04-26 16:47 26.98157 35.55638 37871 ft 448 kts 304°
2026-04-26 16:48 27.02463 35.50580 37875 ft 448 kts 304°
2026-04-26 16:48 27.06763 35.45523 37876 ft 448 kts 304°
2026-04-26 16:49 27.11033 35.40495 37875 ft 447 kts 304°
2026-04-26 16:49 27.15323 35.35438 37876 ft 447 kts 304°
2026-04-26 16:50 27.19608 35.30379 37878 ft 447 kts 304°
2026-04-26 16:50 27.23889 35.25321 37864 ft 447 kts 304°
2026-04-26 16:51 27.28174 35.20251 37868 ft 446 kts 304°
2026-04-26 16:51 27.32421 35.15219 37881 ft 447 kts 304°
2026-04-26 16:52 27.35980 35.11000 37882 ft 446 kts 304°
2026-04-26 16:52 27.40963 35.05083 37880 ft 446 kts 304°
2026-04-26 16:53 27.45233 35.00007 37876 ft 446 kts 304°
2026-04-26 16:53 27.49467 34.94968 37879 ft 446 kts 304°
2026-04-26 16:54 27.53909 34.90029 37875 ft 451 kts 307°
2026-04-26 16:54 27.58490 34.85209 37876 ft 451 kts 307°
2026-04-26 16:55 27.63063 34.80375 37868 ft 450 kts 307°
2026-04-26 16:55 27.67602 34.75572 37870 ft 451 kts 307°
2026-04-26 16:56 27.74459 34.68308 37865 ft 450 kts 307°
2026-04-26 16:57 27.79013 34.63476 37850 ft 450 kts 307°
2026-04-26 16:57 27.85858 34.56201 37854 ft 450 kts 307°
2026-04-26 16:58 27.89651 34.52166 37858 ft 450 kts 307°
2026-04-26 16:59 27.97222 34.44096 37866 ft 450 kts 306°
2026-04-26 17:00 28.05339 34.33663 37860 ft 441 kts 300°
2026-04-26 17:00 28.11183 34.25606 37866 ft 441 kts 300°
2026-04-26 17:01 28.15020 34.20291 37879 ft 441 kts 300°
2026-04-26 17:01 28.18827 34.14994 37895 ft 440 kts 300°
2026-04-26 17:02 28.22727 34.09585 37914 ft 441 kts 300°
2026-04-26 17:02 28.26640 34.04140 37918 ft 439 kts 300°
2026-04-26 17:03 28.30393 33.98878 37936 ft 439 kts 300°
2026-04-26 17:03 28.34254 33.93522 37934 ft 441 kts 300°
2026-04-26 17:04 28.38070 33.88196 37916 ft 441 kts 300°
2026-04-26 17:04 28.40745 33.84466 37922 ft 441 kts 300°
2026-04-26 17:05 28.44609 33.79046 37921 ft 441 kts 300°
2026-04-26 17:05 28.48462 33.73640 37914 ft 445 kts 300°
2026-04-26 17:06 28.51713 33.69086 37950 ft 441 kts 300°
2026-04-26 17:06 28.54552 33.65100 37943 ft 442 kts 300°
2026-04-26 17:07 28.58410 33.59677 37945 ft 441 kts 300°
2026-04-26 17:07 28.62276 33.54241 37947 ft 442 kts 300°
2026-04-26 17:08 28.66118 33.48828 37950 ft 443 kts 300°
2026-04-26 17:08 28.69984 33.43372 37945 ft 443 kts 300°
2026-04-26 17:09 28.73195 33.38837 37947 ft 443 kts 300°
2026-04-26 17:09 28.77717 33.32442 37956 ft 444 kts 300°
2026-04-26 17:10 28.81586 33.26962 37951 ft 445 kts 300°
2026-04-26 17:10 28.85440 33.21497 37954 ft 445 kts 300°
2026-04-26 17:11 28.89320 33.15987 37941 ft 445 kts 300°
2026-04-26 17:11 28.93204 33.10464 37944 ft 446 kts 300°